Terminal Aerodrome Forecast
Issued by NWS

Home | Current Version | Previous Version | Text Only | Print | Product List | Glossary On
Versions: 1 2 3 4 5 6 7 8 9 10 11 12
075
FTUS46 KHNX 191730
TAFFAT
TAF
KFAT 191730Z 1918/2018 VRB05KT P6SM BKN050
     FM192000 14009KT P6SM OVC050
     FM200200 14012KT P6SM -RA OVC050
     FM201300 11015G21KT P6SM -SHRA OVC040=

USA.gov is the U.S. government's official web portal to all federal, state and local government web resources and services.